International Skating Union - Official Site

ESSENT ISU WORLD ALLROUND CHAMPIONSHIPS 2010
March 20-21, 2010

Draw | Lap Times | Index | Classification

Referee: Knut  LUDAHL  (NOR)
Starter: Marcel Lesche  VANBERG  (NOR)
StartTime: EndTime: Air Temp: Ice Temp: Humidity:
14:20 16:32
Result 10000m Men
Rankings as of Mar 21 2010 4:34PM
Rank: No.: Name: Nation: Time: Behind: Points:
1 14 Sven  KRAMER NED NED 12:57.97400m - 33.99 - (33.9)
800m - 1:04.50 - (30.5)
1200m - 1:35.83 - (31.3)
1600m - 2:06.90 - (31.0)
2000m - 2:38.08 - (31.1)
2400m - 3:09.34 - (31.2)
2800m - 3:40.71 - (31.3)
3200m - 4:11.67 - (30.9)
3600m - 4:42.92 - (31.2)
4000m - 5:14.18 - (31.2)
4400m - 5:45.61 - (31.4)
4800m - 6:16.89 - (31.2)
5200m - 6:48.28 - (31.3)
5600m - 7:19.45 - (31.1)
6000m - 7:50.79 - (31.3)
6400m - 8:21.93 - (31.1)
6800m - 8:52.98 - (31.0)
7200m - 9:24.07 - (31.0)
7600m - 9:55.28 - (31.2)
8000m - 10:26.01 - (30.7)
8400m - 10:56.94 - (30.9)
8800m - 11:27.45 - (30.5)
9200m - 11:57.91 - (30.4)
9600m - 12:28.20 - (30.3)
10000m - 12:57.97 - (29.7)
38.898
2 17 Håvard  BØKKO NOR NOR 13:12.13400m - 34.12 - (34.1)
800m - 1:04.63 - (30.5)
1200m - 1:35.89 - (31.2)
1600m - 2:07.46 - (31.5)
2000m - 2:39.07 - (31.6)
2400m - 3:10.60 - (31.5)
2800m - 3:42.31 - (31.7)
3200m - 4:13.96 - (31.6)
3600m - 4:45.58 - (31.6)
4000m - 5:17.51 - (31.9)
4400m - 5:49.15 - (31.6)
4800m - 6:20.96 - (31.8)
5200m - 6:52.52 - (31.5)
5600m - 7:24.21 - (31.6)
6000m - 7:55.88 - (31.6)
6400m - 8:27.50 - (31.6)
6800m - 8:59.19 - (31.6)
7200m - 9:30.83 - (31.6)
7600m - 10:02.42 - (31.5)
8000m - 10:34.07 - (31.6)
8400m - 11:05.66 - (31.5)
8800m - 11:37.33 - (31.6)
9200m - 12:09.00 - (31.6)
9600m - 12:40.67 - (31.6)
10000m - 13:12.13 - (31.4)
14.16 39.606
3 12 Ted-Jan  BLOEMEN NED NED 13:13.56400m - 33.52 - (33.5)
800m - 1:03.69 - (30.1)
1200m - 1:34.58 - (30.8)
1600m - 2:05.52 - (30.9)
2000m - 2:36.59 - (31.0)
2400m - 3:07.61 - (31.0)
2800m - 3:38.93 - (31.3)
3200m - 4:10.35 - (31.4)
3600m - 4:42.51 - (32.1)
4000m - 5:14.79 - (32.2)
4400m - 5:47.44 - (32.6)
4800m - 6:19.86 - (32.4)
5200m - 6:52.26 - (32.4)
5600m - 7:24.46 - (32.2)
6000m - 7:56.71 - (32.2)
6400m - 8:28.61 - (31.9)
6800m - 9:00.54 - (31.9)
7200m - 9:32.74 - (32.2)
7600m - 10:04.63 - (31.9)
8000m - 10:36.43 - (31.7)
8400m - 11:08.46 - (32.0)
8800m - 11:40.09 - (31.6)
9200m - 12:11.78 - (31.6)
9600m - 12:42.83 - (31.0)
10000m - 13:13.56 - (30.7)
15.59 39.678
4 26 Jonathan  KUCK USA USA 13:15.62400m - 34.52 - (34.5)
800m - 1:04.25 - (29.7)
1200m - 1:35.06 - (30.8)
1600m - 2:06.67 - (31.6)
2000m - 2:38.05 - (31.3)
2400m - 3:09.25 - (31.2)
2800m - 3:39.93 - (30.6)
3200m - 4:11.24 - (31.3)
3600m - 4:42.61 - (31.3)
4000m - 5:14.04 - (31.4)
4400m - 5:45.56 - (31.5)
4800m - 6:17.01 - (31.4)
5200m - 6:48.60 - (31.5)
5600m - 7:20.63 - (32.0)
6000m - 7:52.52 - (31.8)
6400m - 8:24.34 - (31.8)
6800m - 8:56.63 - (32.2)
7200m - 9:29.07 - (32.4)
7600m - 10:01.40 - (32.3)
8000m - 10:33.59 - (32.1)
8400m - 11:05.97 - (32.3)
8800m - 11:38.72 - (32.7)
9200m - 12:11.16 - (32.4)
9600m - 12:43.15 - (31.9)
10000m - 13:15.62 - (32.4)
17.65 39.781
5 19 Sverre  HAUGLI NOR NOR 13:18.39400m - 34.65 - (34.6)
800m - 1:05.44 - (30.7)
1200m - 1:36.63 - (31.1)
1600m - 2:08.14 - (31.5)
2000m - 2:39.70 - (31.5)
2400m - 3:11.24 - (31.5)
2800m - 3:42.90 - (31.6)
3200m - 4:14.67 - (31.7)
3600m - 4:46.73 - (32.0)
4000m - 5:18.75 - (32.0)
4400m - 5:50.76 - (32.0)
4800m - 6:22.72 - (31.9)
5200m - 6:54.59 - (31.8)
5600m - 7:26.42 - (31.8)
6000m - 7:58.27 - (31.8)
6400m - 8:30.25 - (31.9)
6800m - 9:02.35 - (32.1)
7200m - 9:34.37 - (32.0)
7600m - 10:06.21 - (31.8)
8000m - 10:37.99 - (31.7)
8400m - 11:09.85 - (31.8)
8800m - 11:41.77 - (31.9)
9200m - 12:13.93 - (32.1)
9600m - 12:46.10 - (32.1)
10000m - 13:18.39 - (32.3)
20.42 39.919
6 13 Jan  BLOKHUIJSEN NED NED 13:25.97400m - 34.14 - (34.1)
800m - 1:05.04 - (30.9)
1200m - 1:36.41 - (31.3)
1600m - 2:08.01 - (31.6)
2000m - 2:39.55 - (31.5)
2400m - 3:11.27 - (31.7)
2800m - 3:42.95 - (31.6)
3200m - 4:14.85 - (31.9)
3600m - 4:46.81 - (31.9)
4000m - 5:18.98 - (32.1)
4400m - 5:51.01 - (32.0)
4800m - 6:23.12 - (32.1)
5200m - 6:55.21 - (32.0)
5600m - 7:27.19 - (31.9)
6000m - 7:59.40 - (32.2)
6400m - 8:31.64 - (32.2)
6800m - 9:03.97 - (32.3)
7200m - 9:36.27 - (32.3)
7600m - 10:08.50 - (32.2)
8000m - 10:40.95 - (32.4)
8400m - 11:13.52 - (32.5)
8800m - 11:46.30 - (32.7)
9200m - 12:19.13 - (32.8)
9600m - 12:52.25 - (33.1)
10000m - 13:25.97 - (33.7)
28.00 40.298
7 20 Shane  DOBBIN NZL NZL 13:30.30400m - 35.32 - (35.3)
800m - 1:06.78 - (31.4)
1200m - 1:39.08 - (32.3)
1600m - 2:11.36 - (32.2)
2000m - 2:43.75 - (32.3)
2400m - 3:15.99 - (32.2)
2800m - 3:48.29 - (32.3)
3200m - 4:20.71 - (32.4)
3600m - 4:53.16 - (32.4)
4000m - 5:26.28 - (33.1)
4400m - 5:58.65 - (32.3)
4800m - 6:31.03 - (32.3)
5200m - 7:03.20 - (32.1)
5600m - 7:35.38 - (32.1)
6000m - 8:07.90 - (32.5)
6400m - 8:40.37 - (32.4)
6800m - 9:12.85 - (32.4)
7200m - 9:45.27 - (32.4)
7600m - 10:17.98 - (32.7)
8000m - 10:50.02 - (32.0)
8400m - 11:22.00 - (31.9)
8800m - 11:54.08 - (32.0)
9200m - 12:26.21 - (32.1)
9600m - 12:58.18 - (31.9)
10000m - 13:30.30 - (32.1)
32.33 40.515
8 15 Wouter  OLDE HEUVEL NED NED 13:32.27400m - 35.32 - (35.3)
800m - 1:06.63 - (31.3)
1200m - 1:38.50 - (31.8)
1600m - 2:10.29 - (31.7)
2000m - 2:42.40 - (32.1)
2400m - 3:14.97 - (32.5)
2800m - 3:47.36 - (32.3)
3200m - 4:19.95 - (32.5)
3600m - 4:52.54 - (32.5)
4000m - 5:25.40 - (32.8)
4400m - 5:58.15 - (32.7)
4800m - 6:30.83 - (32.6)
5200m - 7:03.55 - (32.7)
5600m - 7:36.03 - (32.4)
6000m - 8:08.40 - (32.3)
6400m - 8:40.89 - (32.5)
6800m - 9:13.53 - (32.6)
7200m - 9:46.15 - (32.6)
7600m - 10:19.15 - (33.0)
8000m - 10:51.63 - (32.4)
8400m - 11:24.33 - (32.7)
8800m - 11:56.61 - (32.2)
9200m - 12:28.47 - (31.8)
9600m - 13:00.44 - (31.9)
10000m - 13:32.27 - (31.8)
34.30 40.613
9 27 Trevor  MARSICANO USA USA 13:38.11400m - 35.41 - (35.4)
800m - 1:07.91 - (32.5)
1200m - 1:40.28 - (32.3)
1600m - 2:11.99 - (31.7)
2000m - 2:43.87 - (31.8)
2400m - 3:16.08 - (32.2)
2800m - 3:48.59 - (32.5)
3200m - 4:20.98 - (32.3)
3600m - 4:53.39 - (32.4)
4000m - 5:25.66 - (32.2)
4400m - 5:57.79 - (32.1)
4800m - 6:30.25 - (32.4)
5200m - 7:03.17 - (32.9)
5600m - 7:35.99 - (32.8)
6000m - 8:08.62 - (32.6)
6400m - 8:41.49 - (32.8)
6800m - 9:14.50 - (33.0)
7200m - 9:47.79 - (33.2)
7600m - 10:20.55 - (32.7)
8000m - 10:53.10 - (32.5)
8400m - 11:25.60 - (32.5)
8800m - 11:58.81 - (33.2)
9200m - 12:32.04 - (33.2)
9600m - 13:05.21 - (33.1)
10000m - 13:38.11 - (32.9)
40.14 40.905
10 4 Lucas  MAKOWSKY CAN CAN 13:54.63400m - 35.26 - (35.2)
800m - 1:08.19 - (32.9)
1200m - 1:40.55 - (32.3)
1600m - 2:12.60 - (32.0)
2000m - 2:44.97 - (32.3)
2400m - 3:17.27 - (32.2)
2800m - 3:49.93 - (32.6)
3200m - 4:22.54 - (32.6)
3600m - 4:55.10 - (32.5)
4000m - 5:27.64 - (32.5)
4400m - 6:00.52 - (32.8)
4800m - 6:33.71 - (33.1)
5200m - 7:06.93 - (33.2)
5600m - 7:40.19 - (33.2)
6000m - 8:13.36 - (33.1)
6400m - 8:46.90 - (33.5)
6800m - 9:20.41 - (33.5)
7200m - 9:54.09 - (33.6)
7600m - 10:28.12 - (34.0)
8000m - 11:01.96 - (33.8)
8400m - 11:36.02 - (34.0)
8800m - 12:10.45 - (34.4)
9200m - 12:45.02 - (34.5)
9600m - 13:19.64 - (34.6)
10000m - 13:54.63 - (34.9)
56.66 41.731
11 9 Matteo  ANESI ITA ITA 14:08.40400m - 36.54 - (36.5)
800m - 1:09.28 - (32.7)
1200m - 1:42.62 - (33.3)
1600m - 2:16.20 - (33.5)
2000m - 2:49.73 - (33.5)
2400m - 3:22.97 - (33.2)
2800m - 3:56.41 - (33.4)
3200m - 4:29.43 - (33.0)
3600m - 5:02.51 - (33.0)
4000m - 5:35.81 - (33.3)
4400m - 6:09.52 - (33.7)
4800m - 6:42.99 - (33.4)
5200m - 7:16.55 - (33.5)
5600m - 7:50.18 - (33.6)
6000m - 8:23.95 - (33.7)
6400m - 8:57.75 - (33.8)
6800m - 9:31.66 - (33.9)
7200m - 10:05.69 - (34.0)
7600m - 10:39.71 - (34.0)
8000m - 11:13.80 - (34.1)
8400m - 11:48.24 - (34.4)
8800m - 12:22.87 - (34.6)
9200m - 12:57.80 - (34.9)
9600m - 13:32.89 - (35.1)
10000m - 14:08.40 - (35.5)
70.43 42.420
12 22 Konrad  NIEDZWIEDZKI POL POL 14:10.78400m - 36.14 - (36.1)
800m - 1:09.26 - (33.1)
1200m - 1:42.43 - (33.1)
1600m - 2:16.01 - (33.5)
2000m - 2:49.40 - (33.3)
2400m - 3:22.83 - (33.4)
2800m - 3:56.02 - (33.1)
3200m - 4:29.49 - (33.4)
3600m - 5:02.55 - (33.0)
4000m - 5:36.20 - (33.6)
4400m - 6:09.83 - (33.6)
4800m - 6:43.69 - (33.8)
5200m - 7:17.72 - (34.0)
5600m - 7:51.56 - (33.8)
6000m - 8:25.92 - (34.3)
6400m - 9:00.56 - (34.6)
6800m - 9:35.62 - (35.0)
7200m - 10:10.77 - (35.1)
7600m - 10:46.20 - (35.4)
8000m - 11:21.65 - (35.4)
8400m - 11:56.46 - (34.8)
8800m - 12:30.99 - (34.5)
9200m - 13:05.36 - (34.3)
9600m - 13:38.73 - (33.3)
10000m - 14:10.78 - (32.0)
72.81 42.539